SCP
0 0 0 0 0 0 0 0 0 0 0 0 0 0 0 0 0 0 0 0 0 0 0 0 0 0 0 0 0 0 0 0 0 0 0 0 0 0 0 0 0 0 0 0
0 0 0 0 0 0 0 0 0 0 0 0 0 0 0 0 0 0 0 0 0 0 0 0 0 0 0 0 0 0 0 0 0 0 0 0 0 0 0 0 0 0 0 0
0 0 0 0 0 0 0 0 0 0 0 0 0 0 0 0 0 0 0 0 0 0 0 0 0 0 0 0 0 0 0 0 0 0 0 0 0 0 0 0 0 0 0 0
0 0 0 0 0 0 0 0 0 0 0 0 0 0 0 0 0 0 0 0 0 0 0 0 0 0 0 0 0 0 0 0 0 0 0 0 0 0 0 0 0 0 0 0
0 0 0 0 0 0 0 0 0 0 0 0 0 0 0 0 0 0 0 0 0 0 0 0 0 0 0 0 0 0 0 0 0 0 0 0 0 0 0 0 0 0 0 0
0 0 0 0 0 0 0 0 0 0 0 0 0 0 0 0 0 0 0 0 0 0 0 0 0 0 0 0 0 0 0 0 0 0 0 0 0 0 0 0 0 0 0 0
0 0 0 0 0 0 0 0 0 0 0 0 0 0 0 0 0 0 0 0 0 0 0 0 0 0 0 0 0 0 0 0 0 0 0 0 0 0 0 0 0 0 0 0
0 0 0 0 0 0 0 0 0 0 0 0 0 0 0 0 0 0 0 0 0 0 0 0 0 0 0 0 0 0 0 0 0 0 0 0 0 0 0 0 0 0 0 0
0 0 0 0 0 0 0 0 0 0 0 0 0 0 0 0 0 0 0 0 0 0 0 0 0 0 0 0 0 0 0 0 0 0 0 0 0 0 0 0 0 0 0 0
0 0 0 0 0 0 0 0 0 0 0 0 0 0 0 0 0 0 0 0 0 0 0 0 0 0 0 0 0 0 0 0 0 0 0 0 0 0 0 0 0 0 0 0
0 0 0 0 0 0 0 0 0 0 0 0 0 0 0 0 0 0 0 0 0 0 0 0 0 0 0 0 0 0 0 0 0 0 0 0 0 0 0 0 0 0 0 0
0 0 0 0 0 0 0 0 0 0 0 0 0 0 0 0 0 0 0 0 0 0 0 0 0 0 0 0 0 0 0 0 0 0 0 0 0 0 0 0 0 0 0 0
0 0 0 0 0 0 0 0 0 0 0 0 0 0 0 0 0 0 0 0 0 0 0 0 0 0 0 0 0 0 0 0 0 0 0 0 0 0 0 0 0 0 0 0
0 0 0 0 0 0 0 0 0 0 0 0 0 0 0 0 0 0 0 0 0 0 0 0 0 0 0 0 0 0 0 0 0 0 0 0 0 0 0 0 0 0 0 0
0 0 0 0 0 0 0 0 0 0 0 0 0 0 0 0 0 0 0 0 0 0 0 0 0 0 0 0 0 0 0 0 0 0 0 0 0 0 0 0 0 0 0 0
0 0 0 0 0 0 0 0 0 0 0 0 0 0 0 0 0 0 0 0 0 0 0 0 0 0 0 0 0 0 0 0 0 0 0 0 0 0 0 0 0 0 0 0
0 0 0 0 0 0 0 0 0 0 0 0 0 0 0 0 0 0 0 0 0 0 0 0 0 0 0 0 0 0 0 0 0 0 0 0 0 0 0 0 0 0 0 0
0 0 0 0 0 0 0 0 0 0 0 0 0 0 0 0 0 0 0 0 0 0 0 0 0 0 0 0 0 0 0 0 0 0 0 0 0 0 0 0 0 0 0 0
0 0 0 0 0 0 0 0 0 0 0 0 0 0 0 0 0 0 0 0 0 0 0 0 0 0 0 0 0 0 0 0 0 0 0 0 0 0 0 0 0 0 0 0
0 0 0 0 0 0 0 0 0 0 0 0 0 0 0 0 0 0 0 0 0 0 0 0 0 0 0 0 0 0 0 0 0 0 0 0 0 0 0 0 0 0 0 0
0 0 0 0 0 0 0 0 0 0 0 0 0 0 0 0 0 0 0 0 0 0 0 0 0 0 0 0 0 0 0 0 0 0 0 0 0 0 0 0 0 0 0 0
0 0 0 0 0 0 0 0 0 0 0 0 0 0 0 0 0 0 0 0 0 0 0 0 0 0 0 0 0 0 0 0 0 0 0 0 0 0 0 0 0 0 0 0
0 0 0 0 0 0 0 0 0 0 0 0 0 0 0 0 0 0 0 0 0 0 0 0 0 0 0 0 0 0 0 0 0 0 0 0 0 0 0 0 0 0 0 0
0 0 0 0 0 0 0 0 0 0 0 0 0 0 0 0 0 0 0 0 0 0 0 0 0 0 0 0 0 0 0 0 0 0 0 0 0 0 0 0 0 0 0 0
0 0 0 0 0 0 0 0 0 0 0 0 0 0 0 0 0 0 0 0 0 0 0 0 0 0 0 0 0 0 0 0 0 0 0 0 0 0 0 0 0 0 0 0
0 0 0 0 0 0 0 0 0 0 0 0 0 0 0 0 0 0 0 0 0 0 0 0 0 0 0 0 0 0 0 0 0 0 0 0 0 0 0 0 0 0 0 0
Wind_Speed
6 8 7 7 5 6 5 6 7 6 2 0 6 7 6 4 2 5 6 5 5 6 6 7 8 8 8 9 11 12 12 12 11 9 10 9 9 9 8 7 11 11 11 12
6 8 6 3 1 3 4 6 5 6 4 2 5 6 7 5 4 3 2 3 6 7 7 8 9 8 8 9 10 11 11 12 11 9 9 8 10 9 8 8 9 10 10 10
9 4 5 5 9 7 4 5 4 2 5 2 3 6 9 7 5 4 1 5 8 9 9 9 9 9 9 9 10 12 11 11 11 11 8 9 8 8 7 8 7 8 10 10
7 5 4 5 8 8 4 5 5 4 4 5 7 4 8 9 7 5 4 7 7 7 7 8 9 9 8 8 7 9 10 10 9 10 9 11 10 10 11 9 8 10 10 11
5 6 7 7 5 5 4 2 5 5 4 4 7 4 5 8 6 4 7 6 6 7 8 9 9 8 7 7 7 7 9 8 9 9 9 9 8 8 9 9 10 9 9 10
4 3 4 4 4 4 8 7 6 4 3 5 4 5 3 3 5 5 5 5 6 7 8 8 7 7 7 7 7 7 8 9 9 9 9 8 9 10 11 11 10 10 8 8
5 4 3 4 5 2 7 7 2 2 3 2 2 1 5 6 6 2 4 5 7 8 7 7 8 8 8 8 8 8 9 9 9 9 9 9 9 9 9 10 10 11 9 9
2 4 4 5 5 5 6 6 4 4 5 5 3 2 5 6 3 2 5 5 7 8 7 7 7 7 7 8 8 8 9 9 9 9 9 8 8 6 6 8 9 9 8 9
6 4 2 2 3 4 5 5 2 3 6 6 2 6 4 3 2 4 5 6 7 7 7 6 6 6 6 7 7 8 9 10 10 9 9 8 8 8 8 9 8 7 8 11
5 1 4 2 3 1 2 2 3 3 5 6 9 1 4 4 2 4 5 6 7 7 6 6 6 6 6 6 6 7 8 8 9 9 9 11 9 9 9 9 9 9 10 11
4 3 3 3 1 2 1 2 1 3 3 3 7 2 5 4 2 5 6 6 6 6 6 6 6 6 6 6 6 7 7 8 8 9 9 10 9 9 9 9 10 10 9 11
4 4 2 4 4 2 3 3 2 3 4 3 5 2 5 4 4 6 5 6 7 7 7 6 6 7 6 7 7 7 7 7 8 8 9 10 10 10 9 10 11 12 12 10
5 3 2 1 1 1 4 3 1 2 2 3 4 3 5 3 6 6 6 7 7 7 7 6 6 6 7 7 7 8 7 8 8 8 9 10 10 10 10 11 12 13 13 10
3 3 3 4 3 1 3 4 5 4 4 5 6 3 2 5 6 6 7 8 7 7 6 7 6 7 7 7 8 8 8 8 9 9 9 9 10 10 11 13 14 14 13 11
2 3 4 6 5 2 5 6 5 8 7 6 7 6 5 6 6 6 7 8 7 6 7 7 7 7 8 8 8 8 8 8 8 8 8 8 9 9 10 12 13 13 13 14
1 3 3 5 2 2 6 8 8 8 8 9 8 5 6 5 6 6 7 7 6 6 7 8 8 9 9 9 9 8 8 8 8 8 8 8 8 9 11 12 12 13 12 11
2 2 3 5 2 4 8 6 10 6 6 5 4 0 4 5 6 5 7 6 5 6 6 7 8 8 8 9 8 9 9 9 9 8 8 8 8 9 11 13 12 11 10 10
1 1 1 4 6 7 4 2 1 4 5 5 3 1 4 5 7 9 7 5 5 5 6 6 6 7 7 7 8 8 9 9 9 8 8 8 9 9 10 10 10 9 8 8
3 2 1 1 4 11 3 3 2 2 5 3 3 3 5 6 4 5 5 5 4 4 4 5 6 6 7 7 8 9 9 9 8 9 9 9 9 9 9 9 9 9 8 7
1 2 1 3 3 8 3 5 4 3 6 4 5 4 5 4 1 1 2 4 4 3 4 5 6 6 7 7 7 8 10 9 9 10 10 10 10 9 10 10 10 8 8 8
3 3 3 5 7 12 3 7 7 4 5 6 6 5 5 4 4 4 5 4 4 4 5 6 6 6 7 7 7 9 10 9 10 10 11 10 9 10 10 8 8 9 8 9
7 6 6 5 6 12 8 9 9 6 5 6 6 6 6 7 7 6 5 4 4 5 5 6 6 7 7 7 7 9 9 9 9 10 11 10 10 10 10 8 8 8 8 7
7 7 5 8 10 2 9 7 5 7 6 6 6 7 7 6 6 5 4 3 3 4 5 5 6 7 7 7 7 8 9 9 10 11 10 9 11 9 7 8 8 8 7 5
5 2 2 7 6 6 8 6 6 6 8 9 9 8 7 6 7 5 3 2 3 4 4 5 6 7 7 7 7 7 8 9 10 11 9 9 10 9 7 8 8 7 8 6
6 7 4 8 4 4 7 8 7 8 11 12 9 7 7 8 7 5 3 2 2 3 3 4 5 6 7 7 8 7 8 9 10 10 8 9 10 8 7 8 8 10 6 11
7 9 9 9 8 8 8 12 12 12 12 12 11 8 7 7 7 6 3 2 1 3 4 5 6 6 7 7 8 7 8 9 9 9 8 7 8 7 7 6 8 16 17 20
Wind_Direction
40 51 34 10 2 329 359 7 76 106 110 140 133 141 148 173 155 46 29 6 358 25 27 32 30 33 19 10 5 354 357 353 350 352 344 342 341 336 331 342 345 346 346 339
83 49 359 339 339 313 3 359 68 132 146 204 154 159 154 168 97 65 316 344 10 19 16 21 22 28 17 11 6 353 356 351 350 350 340 340 333 327 329 339 337 338 339 339
73 27 326 28 22 353 38 40 355 340 139 224 196 190 171 157 146 196 239 37 24 17 14 11 14 20 13 13 8 353 350 350 349 347 341 340 328 330 335 335 332 335 337 332
68 14 335 55 34 351 38 26 315 274 196 205 181 244 165 166 188 192 69 44 26 21 16 13 16 15 10 14 7 352 346 346 346 344 342 341 339 335 332 331 328 332 333 327
69 15 15 33 17 346 324 313 281 275 236 261 190 243 154 156 183 103 52 33 25 26 24 19 17 9 9 15 6 350 341 342 343 342 339 336 332 327 325 326 329 330 327 327
113 85 49 355 290 269 286 251 226 246 239 263 192 194 144 136 96 53 28 18 29 29 29 20 11 5 11 12 0 345 341 343 343 341 336 336 330 329 328 332 330 328 325 328
133 95 63 349 319 333 341 336 298 277 231 228 105 248 99 96 85 58 17 23 36 32 30 15 6 6 8 359 355 348 346 343 342 339 337 332 328 327 326 329 326 326 327 329
168 105 38 19 20 330 327 8 24 324 312 311 213 141 111 118 154 84 41 41 40 36 31 17 11 9 1 355 353 348 344 340 340 338 335 326 327 324 320 322 320 322 324 321
5 90 129 38 352 343 353 42 11 293 275 274 254 109 140 165 207 48 34 46 40 37 24 15 11 8 2 356 351 345 341 339 339 336 332 323 327 322 320 319 317 319 320 322
330 45 126 130 243 127 38 334 313 306 332 308 297 96 143 150 27 22 35 42 39 34 21 16 9 6 0 354 347 342 339 337 335 334 331 330 324 321 321 321 321 322 321 322
333 309 162 197 310 12 289 239 330 270 230 272 299 327 104 116 48 45 41 48 45 35 25 13 6 1 353 351 345 337 336 336 334 331 327 322 320 322 325 324 323 321 319 322
21 324 281 102 70 7 318 338 342 309 304 263 272 286 139 136 75 65 48 53 52 41 29 15 4 353 349 347 341 336 335 336 331 328 326 323 324 327 327 326 326 323 320 322
355 304 276 278 181 232 233 198 238 312 299 267 265 289 160 135 69 58 51 57 49 32 20 9 360 349 346 341 339 335 337 335 329 331 326 325 326 327 328 327 327 323 320 324
330 290 279 300 326 317 253 188 189 215 238 255 252 328 107 59 40 38 51 60 46 22 12 2 354 345 342 338 336 333 337 328 330 330 323 323 323 326 327 327 324 321 323 325
300 289 300 292 289 246 262 269 233 214 234 255 280 337 16 50 35 39 52 53 32 10 5 358 348 340 339 336 332 332 326 322 326 317 315 314 317 320 322 321 319 323 327 326
223 291 306 284 198 247 259 242 243 246 238 252 280 312 81 46 44 34 56 51 22 4 359 350 342 340 338 331 327 326 319 323 316 311 310 312 318 321 321 321 326 329 326 322
198 287 298 286 235 274 272 231 203 215 216 234 255 113 62 39 36 39 73 57 21 7 353 342 337 335 327 321 322 326 327 320 315 313 314 318 317 319 322 328 329 324 322 322
280 237 249 298 337 266 242 26 24 219 242 230 231 61 69 67 60 81 75 56 27 6 346 332 325 318 314 319 324 324 321 317 318 321 326 322 319 318 322 324 320 318 318 317
343 301 288 355 290 277 222 194 182 199 273 223 178 110 80 62 73 83 54 58 44 11 346 324 317 315 325 326 324 324 321 321 326 332 332 330 325 323 325 323 320 321 320 317
313 316 255 157 238 258 242 130 96 75 270 160 128 114 97 77 326 144 96 67 48 14 348 330 326 329 327 319 323 328 325 330 337 337 335 330 326 325 322 321 322 319 321 324
186 197 209 209 237 265 147 127 114 162 249 137 129 121 113 120 136 124 98 67 36 17 350 342 337 330 318 317 332 330 327 336 336 334 329 326 326 325 322 321 320 322 325 329
186 192 213 199 226 258 151 148 185 202 124 124 117 116 117 110 109 104 88 64 33 7 350 347 336 322 317 330 341 330 330 331 333 329 326 328 330 330 340 336 334 333 332 335
214 204 210 206 220 183 160 182 171 129 139 127 116 116 119 123 125 113 93 65 32 7 347 341 330 319 326 342 343 329 326 334 334 329 329 334 331 330 340 343 340 338 334 338
230 143 236 274 251 184 182 142 129 133 126 114 120 124 129 132 122 111 96 63 30 360 342 337 327 327 331 336 334 324 332 339 334 330 335 341 335 335 342 351 348 342 340 355
226 162 221 256 244 138 184 158 144 117 112 112 116 123 132 132 132 133 131 77 29 342 337 334 329 328 327 329 327 331 346 342 336 331 341 345 340 335 346 355 352 353 355 14
205 185 193 230 211 182 195 163 146 142 141 140 137 132 132 137 140 144 147 104 23 338 345 338 328 326 324 328 328 338 350 341 334 339 350 344 338 342 352 354 353 3 11 15